AO-07 1 07530U 74089B 17299.52514201 -.00000039 00000-0 33427-4 0 9997 2 07530 101.6504 265.7053 0012443 067.5998 050.5421 12.53629387965081 UO-11 1 14781U 84021B 17299.67811647 .00000172 00000-0 27369-4 0 9995 2 14781 97.6820 340.4398 0009764 123.7853 236.4292 14.82947215809830 LO-19 1 20442U 90005G 17299.42468515 .00000050 00000-0 34299-4 0 9995 2 20442 098.5848 234.6544 0012749 117.5296 242.7184 14.32875243450352 HUBBLE 1 20580U 90037B 17299.25849394 .00000943 00000-0 47186-4 0 9992 2 20580 028.4692 221.3570 0002896 140.7852 352.7222 15.08900129310013 MET-2/21 1 22782U 93055A 17299.48379579 .00000038 00000-0 20972-4 0 9998 2 22782 082.5464 279.3812 0023627 064.2587 052.7541 13.83802957219581 AO-27 1 22825U 93061C 17299.52548631 .00000025 00000-0 27531-4 0 9999 2 22825 098.8302 266.8320 0007650 313.8255 046.2294 14.30010909255908 IO-26 1 22826U 93061D 17299.45638225 .00000034 00000-0 30717-4 0 9991 2 22826 098.8244 266.8284 0008058 302.8365 057.2041 14.30340808256093 FO-29 1 24278U 96046B 17299.63812829 -.00000061 00000-0 -24672-4 0 9999 2 24278 98.5405 165.2719 0350421 356.8896 3.0067 13.53079924 46657 NOAA-15 1 25338U 98030A 17299.65306459 .00000022 00000-0 28129-4 0 9997 2 25338 98.7804 310.8167 0010532 179.6424 180.4764 14.25822430 11732 GO-32 1 25397U 98043D 17299.69430342 .00000016 00000-0 26131-4 0 9993 2 25397 98.6219 239.3251 0001421 27.7804 332.3450 14.23631918 2509 ISS 1 25544U 98067A 17299.87962204 .00004183 00000-0 70054-4 0 9992 2 25544 51.6403 101.8149 0005295 63.0987 85.8684 15.54269719 82232 NO-44 1 26931U 01043C 17299.62325935 .00000011 00000-0 36012-4 0 9990 2 26931 067.0494 112.0675 0005535 258.9179 101.1300 14.30480077839071 SO-50 1 27607U 02058C 17299.63958204 .00000131 00000-0 39547-4 0 9999 2 27607 64.5550 83.8502 0036830 34.0920 326.2537 14.75381402798505 CO-55 1 27844U 03031E 17299.57903817 .00000098 00000-0 63947-4 0 9990 2 27844 098.6903 306.6770 0009238 333.3963 026.6740 14.22069745742955 CO-57 1 27848U 03031J 17299.68494713 .00000073 00000-0 53184-4 0 9991 2 27848 98.6994 307.0945 0009311 343.3504 16.7366 14.21680107742888 RS-22 1 27939U 03042A 17299.97756346 .00000179 00000-0 40608-4 0 9993 2 27939 97.9574 80.6202 0013258 162.6322 197.5307 14.66618735752634 NOAA-18 1 28654U 05018A 17299.61040108 -.00000011 00000-0 19245-4 0 9995 2 28654 099.1737 324.9819 0015151 065.2566 295.0180 14.12354274640718 CO-58 1 28895U 05043F 17299.65640354 .00000290 00000-0 64548-4 0 9997 2 28895 97.8803 96.0169 0018189 88.3063 272.0223 14.63460355639716 Falconsat-3 1 30776U 07006E 17299.48576296 .00007078 00000-0 21637-3 0 9995 2 30776 035.4368 313.1628 0001837 072.4975 287.5951 15.33221428588415 CO-65 1 32785U 08021C 17299.64722293 .00000483 00000-0 58198-4 0 9999 2 32785 97.5597 317.8717 0014697 92.7887 267.5012 14.87986850514448 AAUSAT2 1 32788U 08021F 17299.57769062 .00001314 00000-0 12796-3 0 9996 2 32788 097.5472 330.5387 0013181 056.0588 304.1884 14.94070105515199 DO-64 1 32789U 08021G 17299.66117146 .00002569 00000-0 18321-3 0 9990 2 32789 97.5440 355.0545 0012895 21.1636 339.0121 15.05380744516649 CO-66 1 32791U 08021J 17299.03845987 .00000693 00000-0 76492-4 0 9995 2 32791 97.5543 322.0497 0014969 79.6344 280.6561 14.90360863514633 RS-30 1 32953U 08025A 17299.71480013 .00000003 00000-0 -50386-4 0 9999 2 32953 82.5021 157.8821 0019449 0.8001 359.3106 12.43079830427760 PRISM 1 33493U 09002B 17299.74858603 .00000375 00000-0 39150-4 0 9999 2 33493 98.1495 187.6116 0016429 12.3110 347.8525 14.95893887475440 NOAA-19 1 33591U 09005A 17299.62562737 .00000134 00000-0 98285-4 0 9995 2 33591 99.1104 268.4254 0012987 262.9521 97.0173 14.12223147449205 TISAT-1 1 36799U 10035E 17299.59275775 .00000887 00000-0 96763-4 0 9996 2 36799 098.0779 065.1176 0011175 253.4562 106.5428 14.90565559395152 JUGNU 1 37839U 11058B 17299.54499605 .00000344 00000-0 41518-4 0 9999 2 37839 019.9626 013.9867 0018812 190.7978 297.0318 14.12598561312187 SRMSAT 1 37841U 11058D 17299.50194333 .00000307 00000-0 23907-4 0 9999 2 37841 019.9724 058.6318 0011961 083.3437 350.3819 14.10588653311751 AO-71 1 37854U 11061E 17299.48108063 .00005059 00000-0 27238-3 0 9998 2 37854 101.6964 239.8617 0166315 046.2268 315.2568 15.04598813326221 HRBE 1 37855U 11061F 17299.51479010 .00005282 00000-0 27888-3 0 9995 2 37855 101.7082 237.6300 0179285 053.3502 308.4042 15.03558908326051 ALMASAT-1 1 38078U 12006B 17299.75549402 .00039430 39174-5 41647-3 0 9992 2 38078 69.4335 136.8419 0281933 96.4110 266.9188 15.28514315304841 HORYU-2 1 38340U 12025D 17299.58989671 .00000408 00000-0 68131-4 0 9994 2 38340 098.3780 308.1594 0010651 230.3510 129.6759 14.75428624282253 RS-40 1 38735U 12041C 17299.61430015 .00000032 00000-0 16251-3 0 9995 2 38735 82.4765 242.2261 0017857 100.2906 260.0188 12.42574975238021 BEESAT-3 1 39134U 13015E 17299.64677452 .00002860 00000-0 14615-3 0 9995 2 39134 64.8647 161.9638 0035022 244.1216 115.6298 15.18368800249437 BEESAT-2 1 39136U 13015G 17299.71329760 .00002261 00000-0 12742-3 0 9995 2 39136 64.8701 174.3249 0033671 264.3515 95.3770 15.15532120249209 ZACUBE-1 1 39417U 13066B 17299.59328654 .00000440 00000-0 62050-4 0 9995 2 39417 097.6158 335.3698 0058835 198.6749 161.2306 14.80801485212229 TRITON-1 1 39427U 13066M 17299.65005697 .00000420 00000-0 75521-4 0 9997 2 39427 97.6370 306.1928 0112834 287.8699 71.0228 14.67546129210329 GOMX-1 1 39430U 13066Q 17299.51382442 .00000562 00000-0 11116-3 0 9998 2 39430 097.6744 288.5986 0151598 348.8687 010.9172 14.58954730208890 LO-74 1 39440U 13066AA 17299.60339213 .00000410 00000-0 64500-4 0 9995 2 39440 097.6190 323.5502 0079516 233.3201 126.0684 14.75541345210274 AO-73 1 39444U 13066AE 17299.57479226 .00000547 00000-0 74191-4 0 9992 2 39444 097.6173 336.5758 0058110 194.9809 164.9686 14.81553217210472 SPROUT 1 39770U 14029E 17299.84275712 .00000814 00000-0 98251-4 0 9998 2 39770 97.8767 37.9637 0007711 253.9713 106.0674 14.86479815185699 DUCHIFAT-1 1 40021U 14033M 17299.72505317 .00000997 00000-0 10903-3 0 9997 2 40021 97.9134 213.0464 0011846 224.3427 135.6842 14.90063049182181 NANOSATCBR1 1 40024U 14033Q 17299.72034333 .00000844 00000-0 94795-4 0 9998 2 40024 97.9084 211.7154 0011143 225.6115 134.4191 14.89363417182125 EO-79 1 40025U 14033R 17299.56936245 .00000700 00000-0 81236-4 0 9991 2 40025 097.9060 210.4051 0011345 229.8913 130.1310 14.88542710181521 DTUSAT-2 1 40030U 14033W 17299.47356443 .00000634 00000-0 74799-4 0 9995 2 40030 097.9019 209.2841 0010830 224.0096 136.0259 14.88159120181460 EO-80 1 40032U 14033Y 17299.65597970 .00000636 00000-0 75222-4 0 9993 2 40032 97.9026 209.4709 0010809 223.8284 136.2075 14.88095040181993 ANTELSAT 1 40034U 14033AA 17299.59444002 .00000424 00000-0 70873-4 0 9997 2 40034 097.8392 179.3200 0057801 229.4764 130.1402 14.73788011179747 VELOX-1 1 40057U 14034E 17299.84448578 .00000489 00000-0 76563-4 0 9996 2 40057 98.1950 42.0882 0010986 4.2392 355.8912 14.77245104179193 DAURIA DX 1 1 40071U 14037C 17299.80720067 .00000201 00000-0 33331-4 0 9995 2 40071 98.3501 56.1967 0008578 359.4175 0.7032 14.81076130178454 UKUBE-1 1 40074U 14037F 17299.67867130 .00000546 00000-0 73314-4 0 9993 2 40074 98.3610 60.6148 0004602 4.8841 355.2427 14.83624823178674 HODOYOSHI-1 1 40299U 14070B 17299.78454347 .00001215 00000-0 55299-4 0 9999 2 40299 97.3965 20.4966 0013182 358.4052 115.1494 15.22537274164963 CHUBUSAT-1 1 40300U 14070C 17299.80824454 .00001408 00000-0 65997-4 0 9995 2 40300 97.3873 17.2528 0020741 5.7002 132.9936 15.21166126164790 QSAT-EOS 1 40301U 14070D 17299.82979444 .00002926 00000-0 12311-3 0 9995 2 40301 97.3809 17.7089 0027333 358.3363 119.4235 15.23854548164873 FIREBIRD FU3 1 40377U 15003B 17299.58181724 .00005119 00000-0 21623-3 0 9997 2 40377 099.1138 149.7949 0133196 287.0016 071.6651 15.16132863150901 FIREBIRD FU4 1 40378U 15003C 17299.63844533 .00004797 00000-0 20270-3 0 9996 2 40378 99.1139 149.9088 0133398 286.7039 71.9583 15.16147403150929 GRIFEX 1 40379U 15003D 17299.57696510 .00003945 00000-0 17782-3 0 9998 2 40379 099.1175 147.0546 0139740 296.2299 062.4620 15.13521744150747 NO-84 1 40654U 15025D 17299.49138853 .00015584 00000-0 27558-3 0 01222 2 40654 054.9972 008.8046 0169102 235.9527 122.5441 15.36283053019875 NO-83 1 40655U 15025E 17298.75396708 .00025492 00000-0 34490-3 0 01385 2 40655 054.9818 338.2527 0130381 254.4762 104.1847 15.48151195019862 DEORBITSAIL 1 40719U 15032E 17299.62685822 .00000797 00000-0 12238-3 0 9991 2 40719 097.9643 191.6350 0017860 080.1604 280.1621 14.76206746123714 NUDT-PHONESAT 1 40900U 15049B 17299.59542934 .00004923 00000-0 22981-3 0 9994 2 40900 097.4443 305.7186 0015346 122.6041 237.6678 15.20189065116410 XW-2A 1 40903U 15049E 17299.65186540 .00004556 00000-0 11795-3 0 9994 2 40903 97.4117 326.9579 0015608 146.5758 213.6476 15.39468150117868 XW-2C 1 40906U 15049H 17299.64188003 .00001507 00000-0 84432-4 0 9994 2 40906 97.4577 302.5432 0016679 116.4531 243.8414 15.14811043116135 XW-2D 1 40907U 15049J 17299.68168504 .00001664 00000-0 92569-4 0 9997 2 40907 97.4548 302.3149 0016075 114.4068 245.8844 15.14934064116149 LILACSAT-2 1 40908U 15049K 17299.68305221 .00000906 00000-0 54367-4 0 9999 2 40908 97.4653 301.9594 0017662 114.2602 246.0477 15.13284019116053 XW-2F 1 40910U 15049M 17299.60303274 .00002520 00000-0 13448-3 0 9998 2 40910 97.4566 303.1371 0016934 112.1677 248.1355 15.15942881116054 XW-2B 1 40911U 15049N 17299.69129806 .00001610 00000-0 89789-4 0 9996 2 40911 97.4588 302.7648 0015977 114.7741 245.5156 15.14888850116040 DCBB 1 40912U 15049P 17299.80680963 .00002250 00000-0 11330-3 0 9993 2 40912 97.4522 305.5488 0017363 102.3428 343.1506 15.18089059116253 TW-1C 1 40926U 15051B 17299.84971277 .00012639 00000-0 26796-3 0 9990 2 40926 97.2155 338.4724 0012770 56.5514 28.2998 15.45119383117238 TW-1A 1 40928U 15051D 17299.87711806 .00005606 00000-0 15553-3 0 9990 2 40928 97.2151 333.3146 0014270 84.5498 267.4288 15.37216175116918 IO-86 1 40931U 15052B 17299.68978652 .00000799 00000-0 22190-4 0 9992 2 40931 6.0020 15.0636 0013887 306.4257 53.4626 14.76551342112437 GomX-3 1 40949U 98067HA 16292.18357804 .08527750 12374-4 77882-3 0 9992 2 40949 51.6055 106.7696 0006699 286.1344 73.8944 16.38002265 59645 LQSat 1 40958U 15057A 17299.82958287 .00000066 00000-0 17982-4 0 9994 2 40958 97.9675 12.7731 0018639 9.3233 350.8303 14.72995367110499 AO-85 1 40967U 15058D 17299.05038674 .00000516 00000-0 76915-4 0 01295 2 40967 064.7764 181.8898 0180919 030.3952 330.7493 14.75550073019102 ATHENOXAT-1 1 41168U 15077C 17299.49950216 .00003334 00000-0 14954-3 0 9993 2 41168 014.9859 289.8370 0012472 038.3072 039.7629 15.12088988102946 ChubuSat-2 1 41338U 16012B 17299.46396313 .00000749 00000-0 52166-4 0 9996 2 41338 031.0047 358.4575 0013951 279.2263 080.6794 14.99847682092714 ChubuSat-3 1 41339U 16012C 17299.57412258 .00000588 00000-0 39254-4 0 9990 2 41339 31.0110 356.6960 0013866 286.4614 73.4500 15.00044502 92717 Horyu-4 1 41340U 16012D 17299.48824444 .00001183 00000-0 84259-4 0 9993 2 41340 031.0065 353.8125 0014214 296.1938 063.7236 15.00767995092755 OUFTI-1 1 41458U 16025C 17299.69140084 .00002390 00000-0 13017-3 0 9995 2 41458 98.1669 344.7583 0171882 209.6168 149.5255 15.03782399 82330 e-st@r-II 1 41459U 16025D 17299.79433526 .00002990 00000-0 16181-3 0 9994 2 41459 98.1723 344.7904 0172988 209.5527 149.5828 15.03602756 82340 AAUSAT4 1 41460U 16025E 17299.77255740 .00002990 00000-0 16145-3 0 9994 2 41460 98.1637 344.9640 0164769 207.1218 152.1328 15.04698427 82373 NODES 1 1 41477U 98067HX 17262.38431888 .17021661 12538-4 46079-3 0 9990 2 41477 51.6074 225.8859 0003017 249.6794 110.5489 16.45625800 77086 NODES 2 1 41478U 98067HY 17266.27255257 .13534231 12598-4 22876-3 0 9990 2 41478 51.6086 206.1528 0005980 262.1280 97.9071 16.47641774 77698 LO-87 1 41557U 16033B 17299.70562291 .00003518 00000-0 13296-3 0 9996 2 41557 97.4545 19.2003 0012466 261.8217 98.1608 15.27595219 78507 NuSat2 1 41558U 16033C 17299.68754093 .00003615 00000-0 13730-3 0 9998 2 41558 97.4575 19.2505 0011908 260.4391 99.5503 15.27418610 78492 Lapan A3 1 41603U 16040E 17299.76794933 .00000477 00000-0 25728-4 0 9997 2 41603 97.4461 0.0716 0013240 342.9284 153.4619 15.19446328 74635 Swayam 1 41607U 16040J 17299.70343426 .00003791 00000-0 17178-3 0 9993 2 41607 97.4458 0.6230 0013416 343.1967 16.8822 15.21396067 74598 Pratham 1 41783U 16059A 17299.14752539 .00000142 00000-0 36893-4 0 9998 2 41783 098.1520 359.0633 0034899 109.6427 250.8546 14.62872122057749 AlSat 1N 1 41789U 16059G 17299.71087438 .00000148 00000-0 37250-4 0 9990 2 41789 98.1532 0.3775 0029820 101.1537 259.3018 14.64091816 57853 ScatSat 1 41790U 16059H 17299.58999827 .00000045 00000-0 22777-4 0 9995 2 41790 098.2950 346.1835 0019610 088.1304 272.2137 14.50845204057310 TY-1 1 41844U 16066D 17299.81397387 .00002241 00000-0 99423-4 0 9994 2 41844 97.4071 305.0209 0016981 131.6122 311.5462 15.22493851 53360 CAS-2T 1 41845U 16066E 17299.64485409 .00000121 00000-0 29461-4 0 9999 2 41845 98.7715 318.3910 0365503 217.9395 139.5524 14.37817854 50387 Pegasus-1 1 41846U 16066F 17299.62384908 .00000567 00000-0 97562-4 0 9991 2 41846 98.7756 318.0613 0368222 219.7256 137.6430 14.37163850 50359 STARS-C 1 41895U 98067KR 17299.63239502 .00096247 00000-0 69605-3 0 9992 2 41895 51.6337 86.9276 0000515 64.6888 295.4164 15.72693687 48583 Tancredo 1 1 41931U 98067KT 17290.98270503 .14164078 12479-4 76733-3 0 9998 2 41931 51.6104 115.9004 0006182 280.1451 79.8879 16.42240901 42996 TO-89 1 41932U 98067KU 17299.62265221 .00033621 00000-0 35071-3 0 9997 2 41932 051.6387 092.9453 0003891 038.0730 322.0539 15.64185880044070 AOBA-V3LOX3 1 41935U 98067KX 17299.63145037 .00039266 00000-0 39364-3 0 9993 2 41935 51.6385 92.2438 0003207 38.6819 321.4406 15.65117175 44183 OSNSAT 1 41939U 98067KZ 17299.63202411 .00134780 00000-0 77415-3 0 9993 2 41939 51.6352 83.1462 0003503 357.3969 2.7013 15.77829053 43554 EO-88 1 42017U 17008BX 17299.62135767 .00003927 00000-0 16701-3 0 9994 2 42017 97.4803 0.7593 0008095 115.6881 244.5193 15.23592502 38499 HAVELSAT 1 42700U 98067LH 17299.65991950 .00031696 00000-0 38143-3 0 9992 2 42700 51.6382 99.1690 0005165 101.2040 258.9534 15.60522233 25438 SOMP2 1 42701U 98067LJ 17299.68152398 .00029706 00000-0 36437-3 0 9994 2 42701 51.6379 99.3157 0005182 100.9407 259.2169 15.60056103 25422 Columbia 1 42702U 98067LK 17299.67895176 .00095867 00000-0 86048-3 0 9996 2 42702 51.6359 96.2837 0002131 99.0531 261.0706 15.67493551 25392 PHOENIX 1 42706U 98067LP 17299.67149266 .00030078 00000-0 36551-3 0 9999 2 42706 51.6379 99.2509 0000792 86.3394 273.7690 15.60305781 25341 X-CubeSat 1 42707U 98067LQ 17299.66852370 .00032718 00000-0 39473-3 0 9995 2 42707 51.6368 99.2219 0000770 91.1083 268.9998 15.60450439 25330 qbee 1 42708U 98067LR 17299.67456434 .00031799 00000-0 38604-3 0 9991 2 42708 51.6370 99.2625 0000808 87.1125 272.9961 15.60302271 25299 ZA-AeroSat 1 42713U 98067LU 17299.65996695 .00030041 00000-0 37925-3 0 9997 2 42713 51.6379 99.9216 0001613 22.5767 337.5297 15.59301236 24991 LINK 1 42714U 98067LV 17299.72360494 .00046157 00000-0 53279-3 0 9993 2 42714 51.6365 98.8362 0001214 8.7366 351.3649 15.61440378 25120 UPSat 1 42716U 98067LX 17299.71110047 .00039128 00000-0 45716-3 0 9998 2 42716 51.6379 98.7618 0003438 108.7154 251.4213 15.61196728 25142 SpaceCube 1 42717U 98067LY 17299.68855294 .00031816 00000-0 38822-3 0 9991 2 42717 51.6378 99.3599 0003683 106.1302 254.0096 15.60163004 24378 Hoopoe 1 42718U 98067LZ 17299.66766706 .00036792 00000-0 43912-3 0 9993 2 42718 51.6377 99.2207 0003532 106.4067 253.7315 15.60669711 24373 Challenger 1 42721U 98067MA 17299.70082689 .00049210 00000-0 54959-3 0 9995 2 42721 51.6370 98.6821 0005215 79.7007 280.4574 15.62253967 24087 NJUST-1 1 42722U 98067MB 17299.68934000 .00026496 00000-0 33861-3 0 9996 2 42722 51.6380 100.1140 0006565 81.3807 278.7930 15.59029236 24068 UNSW-EC0 1 42723U 98067MC 17299.70013865 .00037242 00000-0 44614-3 0 9996 2 42723 51.6382 99.4388 0005783 81.0047 279.1601 15.60556102 24057 DUTHsat 1 42724U 98067MD 17299.71756671 .00050231 00000-0 56783-3 0 9990 2 42724 51.6379 98.8025 0004504 84.4460 275.7048 15.61936148 23982 LO-90 1 42725U 98067ME 17299.68104984 .00029939 00000-0 37490-3 0 9996 2 42725 51.6380 100.0607 0005315 84.8527 275.3073 15.59506340 23962 nSIGHT1 1 42726U 98067MF 17299.69055141 .00020347 00000-0 27792-3 0 9996 2 42726 51.6394 100.8784 0006289 85.7229 274.4482 15.57424985 23968 QBITO 1 42728U 98067MH 17299.71584303 .00033015 00000-0 40476-3 0 9998 2 42728 51.6396 99.5532 0002845 98.1071 262.0245 15.60022139 23783 Aalto-2 1 42729U 98067MJ 17299.71546207 .00034055 00000-0 41664-3 0 9995 2 42729 51.6387 99.5427 0002763 97.2051 262.9257 15.60061302 23792 SUSat 1 42730U 98067MK 17299.66207844 .00031252 00000-0 38702-3 0 9997 2 42730 51.6379 99.9325 0002916 93.3966 266.7360 15.59785763 23775 i-INSPIRE II 1 42731U 98067ML 17299.68970132 .00039756 00000-0 47082-3 0 9995 2 42731 51.6371 99.3543 0005685 23.8920 336.2336 15.60825952 23838 PolyITAN-2-SAU 1 42732U 98067MM 17299.70931820 .00032787 00000-0 39914-3 0 9992 2 42732 51.6374 99.4870 0005877 24.2895 335.8374 15.60198095 23833 SNUSAT-1 1 42733U 98067MN 17299.66192471 .00030432 00000-0 37733-3 0 9991 2 42733 51.6378 99.9240 0005975 27.8767 332.2545 15.59753906 23826 ExAlta-1 1 42734U 98067MP 17299.69337883 .00038147 00000-0 45460-3 0 9990 2 42734 51.6372 99.3810 0007065 52.6379 307.5257 15.60672104 23787 Aoxiang-1 1 42735U 98067MQ 17299.96679660 .00027944 00000-0 35487-3 0 9994 2 42735 51.6397 98.6493 0007686 83.4021 64.4092 15.59157203 25233 BeEagleSat 1 42736U 98067MR 17299.67488551 .00030253 00000-0 37930-3 0 9992 2 42736 51.6376 100.0138 0006777 76.1844 283.9902 15.59458894 23884 Atlantis 1 42737U 98067MS 17299.65441644 .00080982 00000-0 78154-3 0 9990 2 42737 51.6351 97.6098 0003865 66.7207 293.4195 15.65760358 23807 CAS-4B 1 42759U 17034B 17299.83431500 .00000656 00000-0 54307-4 0 9994 2 42759 43.0176 284.1253 0006804 83.5433 346.5481 15.09068108 20190 CAS-4A 1 42761U 17034D 17299.82751593 .00000750 00000-0 60008-4 0 9993 2 42761 43.0187 284.0819 0007191 87.0004 341.8261 15.09143920 20184 UCLSat 1 42765U 17036A 17299.67529094 .00003299 00000-0 15102-3 0 9996 2 42765 97.4348 357.9266 0012429 167.1684 192.9870 15.21140006 19208 NIUSat 1 42766U 17036B 17299.64893284 .00002845 00000-0 13554-3 0 9994 2 42766 97.4351 357.6622 0016984 155.4698 204.7348 15.19817665 19055 LituanicaSAT 2 1 42768U 17036D 17299.23533233 .00005696 00000-0 26471-3 0 9995 2 42768 097.4351 357.2953 0016914 160.2343 199.9551 15.20255171019000 InflateSail 1 42770U 17036F 17245.93730135 .99999999 00000-0 73960-1 0 9995 2 42770 097.4262 306.2162 0014869 278.7167 080.9844 16.07641391010932 Aalto 1 1 42775U 17036L 17299.60923242 .00001959 00000-0 93207-4 0 9997 2 42775 097.4349 357.7119 0015073 155.8890 204.3054 15.20262591019009 URSA MAIOR 1 42776U 17036M 17299.60588275 .00002187 00000-0 10354-3 0 9996 2 42776 097.4353 357.7209 0014930 156.1607 204.0323 15.20313645019009 Max Valier Sat 1 42778U 17036P 17299.63930615 .00002846 00000-0 13221-3 0 9998 2 42778 97.4367 357.8542 0013485 160.8024 199.3723 15.20737044 19009 Pegasus 1 42784U 17036V 17299.22602787 .00003004 00000-0 13840-3 0 9990 2 42784 097.4350 357.4613 0012917 169.0559 191.0960 15.20990968018946 NUDATSat 1 42787U 17036Y 17299.60679801 .00004465 00000-0 20243-3 0 9993 2 42787 097.4352 357.8691 0012615 167.8459 192.3083 15.21281793018840 SUCHAI 1 1 42788U 17036Z 17299.61138139 .00003664 00000-0 16732-3 0 9997 2 42788 097.4350 357.8613 0012601 167.6635 192.4911 15.21152630019076 SKCUBE 1 42789U 17036AA 17299.60871419 .00003415 00000-0 15611-3 0 9991 2 42789 097.4350 357.8635 0012427 167.5055 192.6491 15.21165803018993 VZLUSAT 1 1 42790U 17036AB 17299.46916399 .00004588 00000-0 20771-3 0 9999 2 42790 097.4348 357.7410 0012131 168.3698 191.7820 15.21320418018975 VENTA 1 1 42791U 17036AC 17299.60043967 .00003245 00000-0 14817-3 0 9991 2 42791 097.4348 357.8737 0012003 167.9096 192.2430 15.21249525018987 Robusta 1B 1 42792U 17036AD 17299.66408965 .00003425 00000-0 15599-3 0 9999 2 42792 97.4348 357.9378 0011944 168.3223 191.8292 15.21299535 19012 D-SAT 1 42794U 17036AF 17299.59892267 .00000511 00000-0 50400-4 0 9999 2 42794 097.6270 357.6338 0126890 339.7844 019.8374 14.90680525018920 BIRD-J 1 42820U 98067MU 17299.49572041 .00030618 00000-0 39472-3 0 9992 2 42820 051.6373 101.8169 0002249 007.3748 352.7277 15.58734134017322 BIRD-G 1 42821U 98067MV 17299.50117012 .00029295 00000-0 38003-3 0 9996 2 42821 051.6376 101.8535 0002265 013.1270 346.9781 15.58592316017303 BIRD-M 1 42822U 98067MW 17299.56565179 .00027085 00000-0 35150-3 0 9999 2 42822 051.6377 101.5348 0002313 016.0349 344.0716 15.58625734017316 BIRD-B 1 42823U 98067MX 17299.63178191 .00028129 00000-0 36449-3 0 9994 2 42823 51.6383 101.2299 0005514 37.0109 323.1263 15.58633305 17306 BIRD-N 1 42824U 98067MY 17299.44403202 .00030472 00000-0 39554-3 0 9992 2 42824 051.6388 102.2267 0005331 037.2957 322.8405 15.58543676017291 TechnoSat 1 42829U 17042E 17299.58131403 .00000399 00000-0 46077-4 0 9991 2 42829 097.6070 205.5145 0012787 255.2702 104.7099 14.90701739015520 Mayak 1 42830U 17042F 17299.97760097 .00002192 00000-0 22750-3 0 9997 2 42830 97.6077 205.9191 0012958 252.4732 107.5104 14.90897557 15584 OBJECT MZ 1 42910U 98067MZ 17299.70046013 .00024493 00000-0 33296-3 0 9993 2 42910 51.6369 101.6768 0006787 61.3683 298.7991 15.57424878 10919 OBJECT NA 1 42911U 98067NA 17299.69922357 .00026429 00000-0 35680-3 0 9996 2 42911 51.6384 101.6813 0006221 56.3499 303.8086 15.57569286 10893 OBJECT NB 1 42912U 98067NB 17299.70795606 .00025463 00000-0 34732-3 0 9998 2 42912 51.6361 101.7138 0005856 70.4696 289.6928 15.57316257 10916 OBJECT NC 1 42913U 98067NC 17299.61557083 .00037160 00000-0 47859-3 0 9995 2 42913 051.6374 101.8595 0004387 082.8992 277.2500 15.58655223010901 OBJECT ND 1 42914U 98067ND 17299.58320205 .00022540 00000-0 30999-3 0 9999 2 42914 051.6385 102.4018 0005675 063.4945 296.6628 15.57172813010864 /EX
